current

24-hour

48-hour




Kentucky State Forecast

Western KY:
Central KY:
Eastern KY:

Specific and detailed farm-by-farm weather forecast information is available in your Point Ag Forecast. Current Conditions Kentucky, U.S.

USDA's Kentucky Crop and Weather Report
Released: May 31, 2016 Issue: 13-16

Agricultural News: Kentucky experienced above normal temperatures and near normal 
rainfall over the past week. Precipitation for the week totaled 1.09 inches, 0.02 
inches below normal. Temperatures averaged 70 degrees for the week, 2 degrees above 
normal. Topsoil moisture was rated 3 percent short, 63 percent adequate and 34 
percent surplus. Subsoil moisture was rated 2 percent short, 70 percent adequate, and 
28 percent surplus. Days suitable for fieldwork averaged 3.1 out of a possible seven.

More here.
...or [mp3].


Mouseover to pause! Click here to zoom!

Kentucky State Forecast

Western KY:
Central KY:
Eastern KY:

Specific and detailed farm-by-farm weather forecast information is available in your Point Ag Forecast. Current Conditions Kentucky, U.S.
Mouseover to pause! Click here to zoom!
Mouseover to pause!

193 
ASUS43 KLMK 270810
RWRKY 
KENTUCKY REGIONAL WEATHER ROUNDUP
NATIONAL WEATHER SERVICE LOUISVILLE KY
400 AM EDT TUE JUN 27 2017

NOTE "FAIR" INDICATES FEW OR NO CLOUDS BELOW 12,000 FEET
WITH NO SIGNIFICANT WEATHER AND/OR OBSTRUCTIONS TO VISIBILITY.

KYZ001>023-026-027-061>063-070>075-270900-
WESTERN AND SOUTH CENTRAL KENTUCKY
  
CITY           SKY/WX    TMP DP  RH WIND       PRES   REMARKS
PADUCAH        CLOUDY    64  58  80 CALM      30.10S                  
HENDERSON      CLEAR     55  53  93 CALM      30.12S                  
OWENSBORO      CLEAR     61  55  81 CALM      30.12R                  
HOPKINSVILLE   CLOUDY    62  58  85 CALM      30.10R                  
BOWLING GREEN  CLEAR     61  58  90 CALM      30.10S                  
GLASGOW        CLEAR     58  58 100 CALM      30.10F                  
$$

KYZ024-025-028>034-038-045-046-053-270900-
NORTH CENTRAL KENTUCKY
  
CITY           SKY/WX    TMP DP  RH WIND       PRES   REMARKS
LOUISVILLE/SDF LGT RAIN  61  56  83 SE5       30.10F                  
LOUISVILLE/LOU MOCLDY    59  58  96 SW6       30.12F                  
FORT KNOX      PTCLDY    58  52  81 E3        30.09F                  
$$

KYZ035>037-039>044-047>052-055>060-089>105-270900-
NORTHEAST KENTUCKY
  
CITY           SKY/WX    TMP DP  RH WIND       PRES   REMARKS
LEXINGTON      LGT RAIN  59  50  72 NW10G17   30.14R                  
COVINGTON      CLEAR     55  49  80 W7        30.09F                  
FRANKFORT      CLOUDY    57  52  83 NW6       30.13R                  
$$

KYZ054-064>069-076>088-106>120-270900-
SOUTHEAST KENTUCKY
  
CITY           SKY/WX    TMP DP  RH WIND       PRES   REMARKS
JACKSON        PTCLDY    61  50  67 CALM      30.11S                  
LONDON         PTCLDY    55  53  93 CALM      30.11F                  
SOMERSET       CLOUDY    54  54 100 CALM      30.13S                  
MIDDLESBORO    PTCLDY    56  55  99 CALM      30.12F                  
MONTICELLO     MOSUNNY   56  55  97 NE8       30.13F                  
$$

  


 Mouseover to pause! Click here  to zoom!


Mouseover to pause!...... Western KY .TODAY...Mostly sunny. Patchy fog in the morning. Highs around 80. East winds around 5 mph. Central KY .TODAY...Partly cloudy. Highs in the mid 70s. Northwest winds up to 5 mph. Eastern KY .TODAY...Mostly sunny. Highs in the mid 70s. Light winds.